sat.trackr.live / text

‹ back to catalog

STARLINK-33821

NORAD 63859 · 2025-093Z

PAYLOAD ACTIVE UNKNOWN

§ Identity

Operator
Country
US
Launch date
2025-05-07
Launch site
AFETR
Launch vehicle
Mass (kg)
RCS (m²)

Purposes: comms

External: N2YO · Heavens-Above · Gunter

§ Orbital elements

Epoch: 2026-09-20T16:40:53.871744Z

Period
94.27 min
Inclination
43.0033°
Eccentricity
0.0001720
Mean motion
15.27584278 rev/d
Perigee alt
481.9 km
Apogee alt
484.2 km
Semi-major
6,861.2 km
B*
4.8317e-4
RAAN
56.7428°
Arg perigee
266.8375°
Mean anomaly
93.2280°
Rev number
7,777

§ Raw data

STARLINK-338211 63859U 25093Z   26263.69506796  .00013059  00000+0  48317-3 0  99902 63859  43.0033  56.7428 0001720 266.8375  93.2280 15.27584278 77776

JSON: /api/v1/satellites/63859 · /tle

For live sub-satellite position, see the globe view (requires WebGL).

§ Visibility from observer

Set your observer location to see the next 7 days of passes ≥ 10°. The values pass through the URL so the page stays shareable.

No JS? Fill the form by hand. The geolocation button needs JavaScript.